Weather History for Pensacola NAS, FL

Change the Weather History Date:

Tuesday, November 20, 2012

  Actual Average Record
Temperature  
Mean Temperature 56 °F -  
Max Temperature 71 °F 68 °F 79 °F (1998)
Min Temperature 42 °F 49 °F 37 °F (2000)
Degree Days  
Heating Degree Days 8    
Growing Degree Days 6 (Base 50)    
Moisture  
Dew Point 48 °F    
Average Humidity 81    
Maximum Humidity 100    
Minimum Humidity 49    
Precipitation  
Precipitation 0.00 in - - ()
Sea Level Pressure  
Sea Level Pressure 30.15 in    
Wind  
Wind Speed 3 mph (NNW)    
Max Wind Speed 9 mph    
Max Gust Speed -    
Visibility 9 miles    
Events Fog , Rain    
Averages and records for this station are not official NWS values.
T = Trace of Precipitation, MM = Missing Value Source: NWS Daily Summary

Daily Weather History Graph

Daily Weather History Graph

Search for Another Location

Airport:

Trip Planner

Search our weather history database for the weather conditions in past years. The results will help you decide how hot, cold, wet, or windy it might be!

Date:

Astronomy

Nov. 20, 2012 Rise Set
Actual Time 6:19 AM CST 4:50 PM CST
Civil Twilight 5:53 AM CST 5:15 PM CST
Nautical Twilight 5:24 AM CST 5:45 PM CST
Astronomical Twilight 4:55 AM CST 6:13 PM CST
Moon 12:08 PM CST (11/20) No Moon Set
Length of Visible Light 11h 21m
Length of Day
10h 30m
First Quarter, 51% of the Moon is Illuminated
Nov 20
First Quarter
Nov 28
Full
Dec 6
Last Quarter
Dec 13
New
Dec 19
First Quarter

Hourly Weather History & Observations

Time (CST) Temp. Windchill Dew Point Humidity Pressure Visibility Wind Dir Wind Speed Gust Speed Precip Events Conditions
12:56 AM 44.1 °F 42.5 °F 43.0 °F 96% 30.17 in 10.0 mi NNW 3.5 mph - 0.00 in   Clear
1:56 AM 46.0 °F 44.8 °F 45.0 °F 96% 30.17 in 10.0 mi NNW 3.5 mph - 0.00 in Rain Light Rain
2:56 AM 44.1 °F - 43.0 °F 96% 30.16 in 9.0 mi Calm Calm - 0.00 in   Clear
3:56 AM 43.0 °F - 42.1 °F 97% 30.15 in 2.0 mi Calm Calm - 0.00 in   Clear
4:03 AM 42.8 °F - 42.8 °F 100% 30.15 in 1.5 mi Calm Calm - N/A   Clear
4:07 AM 42.8 °F - 42.8 °F 100% 30.15 in 3.0 mi Calm Calm - N/A   Clear
4:56 AM 44.1 °F 42.5 °F 43.0 °F 96% 30.16 in 10.0 mi NNW 3.5 mph - 0.00 in   Clear
5:56 AM 45.0 °F 43.5 °F 44.1 °F 97% 30.18 in 10.0 mi NNW 3.5 mph - N/A   Partly Cloudy
6:56 AM 44.1 °F - 44.1 °F 100% 30.18 in 7.0 mi Calm Calm - N/A Fog Shallow Fog
7:56 AM 54.0 °F - 50.0 °F 86% 30.20 in 10.0 mi North 5.8 mph - N/A   Mostly Cloudy
8:56 AM 60.1 °F - 51.1 °F 72% 30.20 in 10.0 mi NNW 5.8 mph - N/A   Mostly Cloudy
9:56 AM 63.0 °F - 51.1 °F 65% 30.19 in 10.0 mi North 3.5 mph - N/A   Mostly Cloudy
10:56 AM 70.0 °F - 52.0 °F 53% 30.16 in 10.0 mi North 9.2 mph - N/A   Mostly Cloudy
11:56 AM 69.1 °F - 52.0 °F 54% 30.13 in 10.0 mi NNE 6.9 mph - N/A   Mostly Cloudy
12:56 PM 70.0 °F - 51.1 °F 51% 30.11 in 10.0 mi Variable 3.5 mph - N/A   Mostly Cloudy
1:56 PM 71.1 °F - 51.1 °F 49% 30.10 in 10.0 mi Variable 4.6 mph - N/A   Mostly Cloudy
2:56 PM 68.0 °F - 50.0 °F 52% 30.10 in 10.0 mi NW 8.1 mph - N/A   Mostly Cloudy
3:56 PM 66.9 °F - 50.0 °F 54% 30.09 in 10.0 mi Variable 3.5 mph - N/A   Mostly Cloudy
4:56 PM 62.1 °F - 50.0 °F 65% 30.10 in 10.0 mi Calm Calm - N/A   Mostly Cloudy
5:56 PM 57.9 °F - 51.1 °F 78% 30.12 in 10.0 mi NNW 3.5 mph - N/A   Scattered Clouds
6:56 PM 57.0 °F - 51.1 °F 81% 30.14 in 10.0 mi NNW 4.6 mph - N/A   Scattered Clouds
7:56 PM 54.0 °F - 51.1 °F 90% 30.14 in 10.0 mi Calm Calm - N/A   Partly Cloudy
8:56 PM 53.1 °F - 51.1 °F 93% 30.14 in 10.0 mi NW 3.5 mph - N/A   Partly Cloudy
9:56 PM 52.0 °F - 51.1 °F 97% 30.15 in 10.0 mi NNW 4.6 mph - N/A   Scattered Clouds
10:56 PM 51.1 °F - 50.0 °F 96% 30.15 in 10.0 mi Calm Calm - N/A   Scattered Clouds
11:56 PM 46.0 °F - 46.0 °F 100% 30.14 in 5.0 mi Calm Calm - N/A   Clear